Time,TemperatureF,DewpointF,PressureIn,WindDirection,WindDirectionDegrees,WindSpeedMPH,WindSpeedGustMPH,Humidity,HourlyPrecipIn,Conditions,Clouds,dailyrainin,SoftwareType,DateUTC
2013-09-23 00:01:00,52.6,43.5,29.66,SE,146,0.0,0.0,71,0.00,,,0.00,WeatherCatV1.11B39,2013-09-23 04:01:00,
2013-09-23 00:06:00,52.5,43.0,29.66,NNW,337,0.0,0.0,70,0.00,,,0.00,WeatherCatV1.11B39,2013-09-23 04:06:00,
2013-09-23 00:11:00,52.3,42.4,29.66,NNW,337,0.0,0.0,69,0.00,,,0.00,WeatherCatV1.11B39,2013-09-23 04:11:00,
2013-09-23 00:16:00,52.2,42.7,29.66,NNW,337,0.0,0.0,70,0.00,,,0.00,WeatherCatV1.11B39,2013-09-23 04:16:00,
2013-09-23 00:21:00,51.9,42.1,29.66,NNW,338,0.0,0.0,69,0.00,,,0.00,WeatherCatV1.11B39,2013-09-23 04:21:00,
2013-09-23 00:26:00,51.6,41.8,29.66,NNW,338,0.0,0.0,69,0.00,,,0.00,WeatherCatV1.11B39,2013-09-23 04:26:00,
2013-09-23 00:31:00,51.4,41.6,29.66,NNW,338,0.0,0.0,69,0.00,,,0.00,WeatherCatV1.11B39,2013-09-23 04:31:00,
2013-09-23 00:36:00,51.3,42.2,29.66,NNW,338,0.0,0.0,71,0.00,,,0.00,WeatherCatV1.11B39,2013-09-23 04:36:00,
2013-09-23 00:41:00,51.3,42.6,29.66,NNW,338,0.0,0.0,72,0.00,,,0.00,WeatherCatV1.11B39,2013-09-23 04:41:00,
2013-09-23 00:46:00,51.2,42.5,29.66,NNW,333,0.0,0.0,72,0.00,,,0.00,WeatherCatV1.11B39,2013-09-23 04:46:00,
2013-09-23 00:51:00,51.0,42.7,29.66,NNW,333,0.0,0.0,73,0.00,,,0.00,WeatherCatV1.11B39,2013-09-23 04:51:00,
2013-09-23 00:56:00,50.8,42.1,29.66,NNW,333,0.0,0.0,72,0.00,,,0.00,WeatherCatV1.11B39,2013-09-23 04:56:00,
2013-09-23 01:01:00,50.7,41.6,29.67,NNW,333,0.0,0.0,71,0.00,,,0.00,WeatherCatV1.11B39,2013-09-23 05:01:00,
2013-09-23 01:06:00,50.5,41.1,29.67,NNW,333,0.0,0.0,70,0.00,,,0.00,WeatherCatV1.11B39,2013-09-23 05:06:00,
2013-09-23 01:11:00,50.3,40.9,29.67,NNW,333,0.0,0.0,70,0.00,,,0.00,WeatherCatV1.11B39,2013-09-23 05:11:00,
2013-09-23 01:16:00,50.1,41.1,29.67,NNW,333,0.0,0.0,71,0.00,,,0.00,WeatherCatV1.11B39,2013-09-23 05:16:00,
2013-09-23 01:21:00,50.1,41.4,29.67,NNW,333,0.0,0.0,72,0.00,,,0.00,WeatherCatV1.11B39,2013-09-23 05:21:00,
2013-09-23 01:26:00,50.1,41.8,29.67,NNW,333,0.0,0.0,73,0.00,,,0.00,WeatherCatV1.11B39,2013-09-23 05:26:00,
2013-09-23 01:31:00,50.0,41.7,29.67,NNW,333,0.0,0.0,73,0.00,,,0.00,WeatherCatV1.11B39,2013-09-23 05:31:00,
2013-09-23 01:36:00,50.0,41.7,29.67,NNW,333,0.0,0.0,73,0.00,,,0.00,WeatherCatV1.11B39,2013-09-23 05:36:00,
2013-09-23 01:41:00,49.8,41.1,29.67,NNW,333,0.0,0.0,72,0.00,,,0.00,WeatherCatV1.11B39,2013-09-23 05:41:00,
2013-09-23 01:46:00,49.7,41.0,29.67,NNW,333,0.0,0.0,72,0.00,,,0.00,WeatherCatV1.11B39,2013-09-23 05:46:00,
2013-09-23 01:51:00,49.5,41.2,29.67,NNW,333,0.0,0.0,73,0.00,,,0.00,WeatherCatV1.11B39,2013-09-23 05:51:00,
2013-09-23 01:56:00,49.4,40.8,29.67,NNW,333,0.0,0.0,72,0.00,,,0.00,WeatherCatV1.11B39,2013-09-23 05:56:00,
2013-09-23 02:01:00,49.1,40.5,29.68,NNW,333,0.0,0.0,72,0.00,,,0.00,WeatherCatV1.11B39,2013-09-23 06:01:00,
2013-09-23 02:06:00,48.8,40.2,29.68,NNW,333,0.0,0.0,72,0.00,,,0.00,WeatherCatV1.11B39,2013-09-23 06:06:00,
2013-09-23 02:11:00,48.5,39.5,29.67,NNW,334,0.0,0.0,71,0.00,,,0.00,WeatherCatV1.11B39,2013-09-23 06:11:00,
2013-09-23 02:16:00,48.2,39.6,29.67,NNW,334,0.0,0.0,72,0.00,,,0.00,WeatherCatV1.11B39,2013-09-23 06:16:00,
2013-09-23 02:21:00,48.0,39.4,29.67,NNW,334,0.0,0.0,72,0.00,,,0.00,WeatherCatV1.11B39,2013-09-23 06:21:00,
2013-09-23 02:26:00,47.9,39.7,29.67,NNW,333,0.0,0.0,73,0.00,,,0.00,WeatherCatV1.11B39,2013-09-23 06:26:00,
2013-09-23 02:31:00,47.9,40.0,29.67,NNW,333,0.0,0.0,74,0.00,,,0.00,WeatherCatV1.11B39,2013-09-23 06:31:00,
2013-09-23 02:36:00,47.6,39.7,29.68,NNW,334,0.0,0.0,74,0.00,,,0.00,WeatherCatV1.11B39,2013-09-23 06:36:00,
2013-09-23 02:41:00,47.5,39.6,29.67,NNW,333,0.0,0.0,74,0.00,,,0.00,WeatherCatV1.11B39,2013-09-23 06:41:00,
2013-09-23 02:46:00,47.3,39.4,29.67,NNW,333,0.0,0.0,74,0.00,,,0.00,WeatherCatV1.11B39,2013-09-23 06:46:00,
2013-09-23 02:51:00,47.3,40.5,29.67,NNW,333,0.0,0.0,77,0.00,,,0.00,WeatherCatV1.11B39,2013-09-23 06:51:00,
2013-09-23 02:56:00,47.2,40.4,29.68,NNW,333,0.0,0.0,77,0.00,,,0.00,WeatherCatV1.11B39,2013-09-23 06:56:00,
2013-09-23 03:01:00,47.0,40.8,29.67,NNW,333,0.0,0.0,79,0.00,,,0.00,WeatherCatV1.11B39,2013-09-23 07:01:00,
2013-09-23 03:06:00,46.9,41.1,29.67,NNW,333,0.0,0.0,80,0.00,,,0.00,WeatherCatV1.11B39,2013-09-23 07:06:00,
2013-09-23 03:11:00,46.6,41.1,29.67,NNW,333,0.0,0.0,81,0.00,,,0.00,WeatherCatV1.11B39,2013-09-23 07:11:00,
2013-09-23 03:16:00,46.3,40.5,29.67,NNW,333,0.0,0.0,80,0.00,,,0.00,WeatherCatV1.11B39,2013-09-23 07:16:00,
2013-09-23 03:21:00,46.0,40.5,29.67,NNW,333,0.0,0.0,81,0.00,,,0.00,WeatherCatV1.11B39,2013-09-23 07:21:00,
2013-09-23 03:26:00,45.8,40.3,29.67,NNW,333,0.0,0.0,81,0.00,,,0.00,WeatherCatV1.11B39,2013-09-23 07:26:00,
2013-09-23 03:31:00,45.6,40.7,29.67,NNW,333,0.0,0.0,83,0.00,,,0.00,WeatherCatV1.11B39,2013-09-23 07:31:00,
2013-09-23 03:36:00,45.4,40.5,29.67,NNW,333,0.0,0.0,83,0.00,,,0.00,WeatherCatV1.11B39,2013-09-23 07:36:00,
2013-09-23 03:41:00,45.3,40.4,29.68,NNW,333,0.0,0.0,83,0.00,,,0.00,WeatherCatV1.11B39,2013-09-23 07:41:00,
2013-09-23 03:46:00,45.3,40.8,29.68,NNW,333,0.0,0.0,84,0.00,,,0.00,WeatherCatV1.11B39,2013-09-23 07:46:00,
2013-09-23 03:51:00,45.2,40.7,29.68,NNW,333,0.0,0.0,84,0.00,,,0.00,WeatherCatV1.11B39,2013-09-23 07:51:00,
2013-09-23 03:56:00,45.0,40.5,29.68,NNW,333,0.0,0.0,84,0.00,,,0.00,WeatherCatV1.11B39,2013-09-23 07:56:00,
2013-09-23 04:01:00,45.0,40.8,29.68,NNW,333,0.0,0.0,85,0.00,,,0.00,WeatherCatV1.11B39,2013-09-23 08:01:00,
2013-09-23 04:06:00,44.8,40.9,29.68,NNW,333,0.0,0.0,86,0.00,,,0.00,WeatherCatV1.11B39,2013-09-23 08:06:00,
2013-09-23 04:11:00,44.8,40.9,29.68,NNW,333,0.0,0.0,86,0.00,,,0.00,WeatherCatV1.11B39,2013-09-23 08:11:00,
2013-09-23 04:16:00,44.8,41.2,29.68,NNW,333,0.0,0.0,87,0.00,,,0.00,WeatherCatV1.11B39,2013-09-23 08:16:00,
2013-09-23 04:21:00,44.6,41.0,29.68,NNW,333,0.0,0.0,87,0.00,,,0.00,WeatherCatV1.11B39,2013-09-23 08:21:00,
2013-09-23 04:26:00,44.5,40.9,29.68,NNW,333,0.0,0.0,87,0.00,,,0.00,WeatherCatV1.11B39,2013-09-23 08:26:00,
2013-09-23 04:31:00,44.5,40.9,29.68,NNW,333,0.0,0.0,87,0.00,,,0.00,WeatherCatV1.11B39,2013-09-23 08:31:00,
2013-09-23 04:36:00,44.3,41.0,29.68,NNW,333,0.0,0.0,88,0.00,,,0.00,WeatherCatV1.11B39,2013-09-23 08:36:00,
2013-09-23 04:41:00,44.2,40.9,29.68,NNW,333,0.0,0.0,88,0.00,,,0.00,WeatherCatV1.11B39,2013-09-23 08:41:00,
2013-09-23 04:46:00,43.9,40.6,29.69,NNW,333,0.0,0.0,88,0.00,,,0.00,WeatherCatV1.11B39,2013-09-23 08:46:00,
2013-09-23 04:51:00,43.9,40.6,29.69,NNW,333,0.0,0.0,88,0.00,,,0.00,WeatherCatV1.11B39,2013-09-23 08:51:00,
2013-09-23 04:56:00,43.9,40.6,29.69,NNW,333,0.0,0.0,88,0.00,,,0.00,WeatherCatV1.11B39,2013-09-23 08:56:00,
2013-09-23 05:01:00,43.6,40.3,29.69,NNW,333,0.0,0.0,88,0.00,,,0.00,WeatherCatV1.11B39,2013-09-23 09:01:00,
2013-09-23 05:06:00,43.6,40.3,29.69,NNW,333,0.0,0.0,88,0.00,,,0.00,WeatherCatV1.11B39,2013-09-23 09:06:00,
2013-09-23 05:11:00,43.9,40.6,29.69,NNW,333,0.0,0.0,88,0.00,,,0.00,WeatherCatV1.11B39,2013-09-23 09:11:00,
2013-09-23 05:16:00,44.6,41.6,29.70,NW,316,0.0,0.0,89,0.00,,,0.00,WeatherCatV1.11B39,2013-09-23 09:16:00,
2013-09-23 05:21:00,44.8,41.5,29.70,NW,316,0.0,0.0,88,0.00,,,0.00,WeatherCatV1.11B39,2013-09-23 09:21:00,
2013-09-23 05:26:00,44.8,41.5,29.70,NW,316,0.0,0.0,88,0.00,,,0.00,WeatherCatV1.11B39,2013-09-23 09:26:00,
2013-09-23 05:31:00,44.8,41.5,29.70,NW,316,0.0,0.0,88,0.00,,,0.00,WeatherCatV1.11B39,2013-09-23 09:31:00,
2013-09-23 05:36:00,44.5,40.9,29.70,NW,316,0.0,0.0,87,0.00,,,0.00,WeatherCatV1.11B39,2013-09-23 09:36:00,
2013-09-23 05:41:00,44.4,41.1,29.70,NW,316,0.0,0.0,88,0.00,,,0.00,WeatherCatV1.11B39,2013-09-23 09:41:00,
2013-09-23 05:46:00,44.3,41.0,29.70,NW,316,0.0,0.0,88,0.00,,,0.00,WeatherCatV1.11B39,2013-09-23 09:46:00,
2013-09-23 05:51:00,44.4,40.8,29.70,NW,316,0.0,0.0,87,0.00,,,0.00,WeatherCatV1.11B39,2013-09-23 09:51:00,
2013-09-23 05:56:00,44.3,41.0,29.70,NW,316,0.0,0.0,88,0.00,,,0.00,WeatherCatV1.11B39,2013-09-23 09:56:00,
2013-09-23 06:01:00,44.6,41.0,29.70,NW,315,0.0,0.0,87,0.00,,,0.00,WeatherCatV1.11B39,2013-09-23 10:01:00,
2013-09-23 06:06:00,45.1,41.5,29.70,NW,315,0.0,0.0,87,0.00,,,0.00,WeatherCatV1.11B39,2013-09-23 10:06:00,
2013-09-23 06:11:00,45.4,41.5,29.70,NW,315,0.0,1.0,86,0.00,,,0.00,WeatherCatV1.11B39,2013-09-23 10:11:00,
2013-09-23 06:16:00,45.7,41.1,29.71,NW,315,0.0,0.0,84,0.00,,,0.00,WeatherCatV1.11B39,2013-09-23 10:16:00,
2013-09-23 06:21:00,45.9,41.0,29.71,NW,316,0.0,0.0,83,0.00,,,0.00,WeatherCatV1.11B39,2013-09-23 10:21:00,
2013-09-23 06:26:00,45.9,40.7,29.71,NW,316,0.0,0.0,82,0.00,,,0.00,WeatherCatV1.11B39,2013-09-23 10:26:00,
2013-09-23 06:31:00,45.9,40.4,29.71,NW,316,0.0,0.0,81,0.00,,,0.00,WeatherCatV1.11B39,2013-09-23 10:31:00,
2013-09-23 06:36:00,45.9,40.1,29.71,NW,315,0.0,0.0,80,0.00,,,0.00,WeatherCatV1.11B39,2013-09-23 10:36:00,
2013-09-23 06:41:00,45.9,39.8,29.71,NW,315,0.0,0.0,79,0.00,,,0.00,WeatherCatV1.11B39,2013-09-23 10:41:00,
2013-09-23 06:46:00,45.9,39.8,29.72,NW,306,0.0,3.0,79,0.00,,,0.00,WeatherCatV1.11B39,2013-09-23 10:46:00,
2013-09-23 06:51:00,46.0,39.5,29.72,NW,306,0.0,0.0,78,0.00,,,0.00,WeatherCatV1.11B39,2013-09-23 10:51:00,
2013-09-23 06:56:00,46.0,39.2,29.72,NW,306,0.0,4.0,77,0.00,,,0.00,WeatherCatV1.11B39,2013-09-23 10:56:00,
2013-09-23 07:01:00,46.2,39.7,29.72,WNW,303,2.0,5.0,78,0.00,,,0.00,WeatherCatV1.11B39,2013-09-23 11:01:00,
2013-09-23 07:06:00,46.3,39.5,29.72,NW,305,0.0,4.0,77,0.00,,,0.00,WeatherCatV1.11B39,2013-09-23 11:06:00,
2013-09-23 07:11:00,46.3,39.5,29.72,NW,305,1.0,4.0,77,0.00,,,0.00,WeatherCatV1.11B39,2013-09-23 11:11:00,
2013-09-23 07:16:00,46.5,39.7,29.72,WNW,299,4.0,5.0,77,0.00,,,0.00,WeatherCatV1.11B39,2013-09-23 11:16:00,
2013-09-23 07:21:00,46.6,39.1,29.72,WNW,296,2.0,5.0,75,0.00,,,0.00,WeatherCatV1.11B39,2013-09-23 11:21:00,
2013-09-23 07:26:00,46.7,39.2,29.72,WNW,299,4.0,6.0,75,0.00,,,0.00,WeatherCatV1.11B39,2013-09-23 11:26:00,
2013-09-23 07:31:00,46.9,39.1,29.72,WNW,298,0.0,0.0,74,0.00,,,0.00,WeatherCatV1.11B39,2013-09-23 11:31:00,
2013-09-23 07:36:00,47.0,39.1,29.72,WNW,297,2.0,6.0,74,0.00,,,0.00,WeatherCatV1.11B39,2013-09-23 11:36:00,
2013-09-23 07:41:00,47.0,39.1,29.72,WNW,298,0.0,2.0,74,0.00,,,0.00,WeatherCatV1.11B39,2013-09-23 11:41:00,
2013-09-23 07:46:00,47.1,39.2,29.72,WNW,298,0.0,0.0,74,0.00,,,0.00,WeatherCatV1.11B39,2013-09-23 11:46:00,
2013-09-23 07:51:00,47.2,39.3,29.72,WNW,299,0.0,0.0,74,0.00,,,0.00,WeatherCatV1.11B39,2013-09-23 11:51:00,
2013-09-23 07:56:00,47.2,39.0,29.72,WNW,299,0.0,0.0,73,0.00,,,0.00,WeatherCatV1.11B39,2013-09-23 11:56:00,
2013-09-23 08:01:00,47.3,39.1,29.72,WNW,299,0.0,0.0,73,0.00,,,0.00,WeatherCatV1.11B39,2013-09-23 12:01:00,
2013-09-23 08:06:00,47.5,39.3,29.72,WNW,299,0.0,0.0,73,0.00,,,0.00,WeatherCatV1.11B39,2013-09-23 12:06:00,
2013-09-23 08:11:00,47.4,39.2,29.73,WNW,299,0.0,0.0,73,0.00,,,0.00,WeatherCatV1.11B39,2013-09-23 12:11:00,
2013-09-23 08:16:00,47.6,39.4,29.73,WNW,299,0.0,0.0,73,0.00,,,0.00,WeatherCatV1.11B39,2013-09-23 12:16:00,
2013-09-23 08:21:00,47.7,38.8,29.72,WNW,302,2.0,2.0,71,0.00,,,0.00,WeatherCatV1.11B39,2013-09-23 12:21:00,
2013-09-23 08:26:00,47.9,39.0,29.72,WSW,258,0.0,0.0,71,0.00,,,0.00,WeatherCatV1.11B39,2013-09-23 12:26:00,
2013-09-23 08:31:00,48.2,39.2,29.72,WSW,252,0.0,0.0,71,0.00,,,0.00,WeatherCatV1.11B39,2013-09-23 12:31:00,
2013-09-23 08:36:00,48.5,39.5,29.72,West,277,0.0,1.0,71,0.00,,,0.00,WeatherCatV1.11B39,2013-09-23 12:36:00,
2013-09-23 08:41:00,48.8,39.1,29.72,West,278,0.0,0.0,69,0.00,,,0.00,WeatherCatV1.11B39,2013-09-23 12:41:00,
2013-09-23 08:46:00,49.0,39.3,29.72,WSW,241,0.0,3.0,69,0.00,,,0.00,WeatherCatV1.11B39,2013-09-23 12:46:00,
2013-09-23 08:51:00,49.2,38.7,29.73,SSW,192,0.0,1.0,67,0.00,,,0.00,WeatherCatV1.11B39,2013-09-23 12:51:00,
2013-09-23 08:56:00,49.5,39.4,29.73,West,265,0.0,0.0,68,0.00,,,0.00,WeatherCatV1.11B39,2013-09-23 12:56:00,
2013-09-23 09:01:00,50.0,39.5,29.73,West,259,0.0,0.0,67,0.00,,,0.00,WeatherCatV1.11B39,2013-09-23 13:01:00,
2013-09-23 09:06:00,50.1,39.2,29.73,WSW,244,0.0,0.0,66,0.00,,,0.00,WeatherCatV1.11B39,2013-09-23 13:06:00,
2013-09-23 09:11:00,50.7,40.1,29.73,SSE,156,0.0,0.0,67,0.00,,,0.00,WeatherCatV1.11B39,2013-09-23 13:11:00,
2013-09-23 09:16:00,50.9,39.6,29.73,South,183,0.0,0.0,65,0.00,,,0.00,WeatherCatV1.11B39,2013-09-23 13:16:00,
2013-09-23 09:21:00,51.2,39.0,29.73,ENE,69,0.0,0.0,63,0.00,,,0.00,WeatherCatV1.11B39,2013-09-23 13:21:00,
2013-09-23 09:26:00,51.5,39.3,29.73,ESE,109,0.0,0.0,63,0.00,,,0.00,WeatherCatV1.11B39,2013-09-23 13:26:00,
2013-09-23 09:31:00,51.8,39.6,29.73,North,2,0.0,0.0,63,0.00,,,0.00,WeatherCatV1.11B39,2013-09-23 13:31:00,
2013-09-23 09:36:00,52.0,39.8,29.73,North,350,0.0,0.0,63,0.00,,,0.00,WeatherCatV1.11B39,2013-09-23 13:36:00,
2013-09-23 09:41:00,52.5,40.3,29.73,South,189,0.0,3.0,63,0.00,,,0.00,WeatherCatV1.11B39,2013-09-23 13:41:00,
2013-09-23 09:46:00,52.8,39.7,29.73,NNW,345,0.0,0.0,61,0.00,,,0.00,WeatherCatV1.11B39,2013-09-23 13:46:00,
2013-09-23 09:51:00,53.2,40.1,29.74,NW,309,0.0,0.0,61,0.00,,,0.00,WeatherCatV1.11B39,2013-09-23 13:51:00,
2013-09-23 09:56:00,53.5,40.0,29.74,West,261,0.0,0.0,60,0.00,,,0.00,WeatherCatV1.11B39,2013-09-23 13:56:00,
2013-09-23 10:01:00,53.8,40.2,29.73,ESE,117,0.0,0.0,60,0.00,,,0.00,WeatherCatV1.11B39,2013-09-23 14:01:00,
2013-09-23 10:06:00,54.2,40.2,29.72,SSW,202,0.0,0.0,59,0.00,,,0.00,WeatherCatV1.11B39,2013-09-23 14:06:00,
2013-09-23 10:11:00,54.7,40.7,29.72,SW,235,0.0,0.0,59,0.00,,,0.00,WeatherCatV1.11B39,2013-09-23 14:11:00,
2013-09-23 10:16:00,54.8,40.3,29.73,NNE,25,0.0,0.0,58,0.00,,,0.00,WeatherCatV1.11B39,2013-09-23 14:16:00,
2013-09-23 10:21:00,55.2,41.1,29.72,South,181,0.0,1.0,59,0.00,,,0.00,WeatherCatV1.11B39,2013-09-23 14:21:00,
2013-09-23 10:26:00,55.5,40.5,29.73,ENE,66,0.0,0.0,57,0.00,,,0.00,WeatherCatV1.11B39,2013-09-23 14:26:00,
2013-09-23 10:31:00,55.7,40.2,29.73,SE,144,0.0,0.0,56,0.00,,,0.00,WeatherCatV1.11B39,2013-09-23 14:31:00,
2013-09-23 10:36:00,56.0,40.5,29.72,SSE,160,0.0,0.0,56,0.00,,,0.00,WeatherCatV1.11B39,2013-09-23 14:36:00,
2013-09-23 10:41:00,56.4,40.9,29.72,East,88,0.0,0.0,56,0.00,,,0.00,WeatherCatV1.11B39,2013-09-23 14:41:00,
2013-09-23 10:46:00,56.4,40.4,29.72,North,0,0.0,0.0,55,0.00,,,0.00,WeatherCatV1.11B39,2013-09-23 14:46:00,
2013-09-23 10:51:00,56.7,41.6,29.73,North,357,0.0,0.0,57,0.00,,,0.00,WeatherCatV1.11B39,2013-09-23 14:51:00,
2013-09-23 10:56:00,57.0,41.5,29.72,West,260,0.0,0.0,56,0.00,,,0.00,WeatherCatV1.11B39,2013-09-23 14:56:00,
2013-09-23 11:01:00,57.4,41.4,29.73,WNW,298,0.0,4.0,55,0.00,,,0.00,WeatherCatV1.11B39,2013-09-23 15:01:00,
2013-09-23 11:06:00,57.7,42.6,29.73,WNW,297,0.0,1.0,57,0.00,,,0.00,WeatherCatV1.11B39,2013-09-23 15:06:00,
2013-09-23 11:11:00,57.6,41.6,29.73,East,85,0.0,0.0,55,0.00,,,0.00,WeatherCatV1.11B39,2013-09-23 15:11:00,
2013-09-23 11:16:00,58.1,42.0,29.73,WNW,292,0.0,1.0,55,0.00,,,0.00,WeatherCatV1.11B39,2013-09-23 15:16:00,
2013-09-23 11:21:00,58.1,41.5,29.73,South,190,0.0,0.0,54,0.00,,,0.00,WeatherCatV1.11B39,2013-09-23 15:21:00,
2013-09-23 11:26:00,58.4,42.3,29.73,NNW,331,0.0,0.0,55,0.00,,,0.00,WeatherCatV1.11B39,2013-09-23 15:26:00,
2013-09-23 11:31:00,58.6,41.5,29.73,SSE,150,0.0,0.0,53,0.00,,,0.00,WeatherCatV1.11B39,2013-09-23 15:31:00,
2013-09-23 11:36:00,58.7,42.1,29.73,NE,37,0.0,0.0,54,0.00,,,0.00,WeatherCatV1.11B39,2013-09-23 15:36:00,
2013-09-23 11:41:00,59.0,41.9,29.74,NW,305,0.0,5.0,53,0.00,,,0.00,WeatherCatV1.11B39,2013-09-23 15:41:00,
2013-09-23 11:46:00,58.7,41.1,29.73,West,273,0.0,5.0,52,0.00,,,0.00,WeatherCatV1.11B39,2013-09-23 15:46:00,
2013-09-23 11:51:00,58.9,42.8,29.73,WNW,302,0.0,0.0,55,0.00,,,0.00,WeatherCatV1.11B39,2013-09-23 15:51:00,
2013-09-23 11:56:00,59.2,42.1,29.73,NW,307,0.0,0.0,53,0.00,,,0.00,WeatherCatV1.11B39,2013-09-23 15:56:00,
2013-09-23 12:01:00,59.7,43.5,29.73,NW,321,0.0,0.0,55,0.00,,,0.00,WeatherCatV1.11B39,2013-09-23 16:01:00,
2013-09-23 12:06:00,60.2,43.0,29.73,ENE,77,0.0,0.0,53,0.00,,,0.00,WeatherCatV1.11B39,2013-09-23 16:06:00,
2013-09-23 12:11:00,60.7,43.5,29.72,NNW,342,0.0,0.0,53,0.00,,,0.00,WeatherCatV1.11B39,2013-09-23 16:11:00,
2013-09-23 12:16:00,60.9,42.6,29.73,SE,128,0.0,0.0,51,0.00,,,0.00,WeatherCatV1.11B39,2013-09-23 16:16:00,
2013-09-23 12:21:00,61.2,42.9,29.73,SSE,151,0.0,0.0,51,0.00,,,0.00,WeatherCatV1.11B39,2013-09-23 16:21:00,
2013-09-23 12:26:00,61.3,43.5,29.72,WNW,293,0.0,0.0,52,0.00,,,0.00,WeatherCatV1.11B39,2013-09-23 16:26:00,
2013-09-23 12:31:00,61.8,43.5,29.73,NW,309,0.0,0.0,51,0.00,,,0.00,WeatherCatV1.11B39,2013-09-23 16:31:00,
2013-09-23 12:36:00,62.0,42.6,29.73,SE,139,0.0,0.0,49,0.00,,,0.00,WeatherCatV1.11B39,2013-09-23 16:36:00,
2013-09-23 12:41:00,62.0,42.1,29.72,SE,146,0.0,0.0,48,0.00,,,0.00,WeatherCatV1.11B39,2013-09-23 16:41:00,
2013-09-23 12:46:00,61.8,44.0,29.73,SSE,153,0.0,1.0,52,0.00,,,0.00,WeatherCatV1.11B39,2013-09-23 16:46:00,
2013-09-23 12:51:00,61.8,43.0,29.72,SW,219,0.0,0.0,50,0.00,,,0.00,WeatherCatV1.11B39,2013-09-23 16:51:00,
2013-09-23 12:56:00,62.3,42.9,29.72,WNW,300,0.0,1.0,49,0.00,,,0.00,WeatherCatV1.11B39,2013-09-23 16:56:00,
2013-09-23 13:01:00,62.6,44.7,29.72,West,265,0.0,0.0,52,0.00,,,0.00,WeatherCatV1.11B39,2013-09-23 17:01:00,
2013-09-23 13:06:00,63.0,44.1,29.73,West,265,0.0,0.0,50,0.00,,,0.00,WeatherCatV1.11B39,2013-09-23 17:06:00,
2013-09-23 13:11:00,62.9,42.9,29.72,WNW,282,0.0,4.0,48,0.00,,,0.00,WeatherCatV1.11B39,2013-09-23 17:11:00,
2013-09-23 13:16:00,62.4,43.0,29.72,WSW,256,0.0,0.0,49,0.00,,,0.00,WeatherCatV1.11B39,2013-09-23 17:16:00,
2013-09-23 13:21:00,62.4,43.0,29.72,NE,55,0.0,0.0,49,0.00,,,0.00,WeatherCatV1.11B39,2013-09-23 17:21:00,
2013-09-23 13:26:00,62.7,43.8,29.73,West,278,0.0,0.0,50,0.00,,,0.00,WeatherCatV1.11B39,2013-09-23 17:26:00,
2013-09-23 13:31:00,63.1,43.6,29.72,NW,316,0.0,0.0,49,0.00,,,0.00,WeatherCatV1.11B39,2013-09-23 17:31:00,
2013-09-23 13:36:00,63.2,44.8,29.72,NW,316,0.0,0.0,51,0.00,,,0.00,WeatherCatV1.11B39,2013-09-23 17:36:00,
2013-09-23 13:41:00,62.9,43.4,29.72,WNW,293,0.0,5.0,49,0.00,,,0.00,WeatherCatV1.11B39,2013-09-23 17:41:00,
2013-09-23 13:46:00,62.6,43.7,29.72,NNW,343,0.0,0.0,50,0.00,,,0.00,WeatherCatV1.11B39,2013-09-23 17:46:00,
2013-09-23 13:51:00,63.1,45.2,29.72,WNW,303,0.0,2.0,52,0.00,,,0.00,WeatherCatV1.11B39,2013-09-23 17:51:00,
2013-09-23 13:56:00,63.5,44.0,29.72,WSW,241,0.0,0.0,49,0.00,,,0.00,WeatherCatV1.11B39,2013-09-23 17:56:00,
2013-09-23 14:01:00,63.7,44.7,29.72,WSW,257,0.0,0.0,50,0.00,,,0.00,WeatherCatV1.11B39,2013-09-23 18:01:00,
2013-09-23 14:06:00,63.7,44.2,29.73,NW,305,0.0,0.0,49,0.00,,,0.00,WeatherCatV1.11B39,2013-09-23 18:06:00,
2013-09-23 14:11:00,63.5,43.5,29.72,ESE,123,0.0,0.0,48,0.00,,,0.00,WeatherCatV1.11B39,2013-09-23 18:11:00,
2013-09-23 14:16:00,63.3,43.8,29.72,SSE,162,0.0,0.0,49,0.00,,,0.00,WeatherCatV1.11B39,2013-09-23 18:16:00,
2013-09-23 14:21:00,63.7,44.7,29.72,WSW,241,0.0,0.0,50,0.00,,,0.00,WeatherCatV1.11B39,2013-09-23 18:21:00,
2013-09-23 14:26:00,63.9,44.4,29.71,WSW,241,0.0,0.0,49,0.00,,,0.00,WeatherCatV1.11B39,2013-09-23 18:26:00,
2013-09-23 14:31:00,63.7,43.6,29.72,WSW,247,0.0,0.0,48,0.00,,,0.00,WeatherCatV1.11B39,2013-09-23 18:31:00,
2013-09-23 14:36:00,63.9,45.4,29.72,West,267,0.0,0.0,51,0.00,,,0.00,WeatherCatV1.11B39,2013-09-23 18:36:00,
2013-09-23 14:41:00,64.0,44.5,29.72,WNW,298,0.0,0.0,49,0.00,,,0.00,WeatherCatV1.11B39,2013-09-23 18:41:00,
2013-09-23 14:46:00,64.0,42.8,29.72,NW,304,2.0,5.0,46,0.00,,,0.00,WeatherCatV1.11B39,2013-09-23 18:46:00,
2013-09-23 14:51:00,63.1,43.6,29.72,WNW,303,0.0,0.0,49,0.00,,,0.00,WeatherCatV1.11B39,2013-09-23 18:51:00,
2013-09-23 14:56:00,62.9,45.0,29.72,West,273,0.0,0.0,52,0.00,,,0.00,WeatherCatV1.11B39,2013-09-23 18:56:00,
2013-09-23 15:01:00,62.9,42.4,29.72,North,0,0.0,0.0,47,0.00,,,0.00,WeatherCatV1.11B39,2013-09-23 19:01:00,
2013-09-23 15:06:00,62.9,44.0,29.72,NW,315,0.0,0.0,50,0.00,,,0.00,WeatherCatV1.11B39,2013-09-23 19:06:00,
2013-09-23 15:11:00,62.9,42.9,29.72,NW,322,0.0,0.0,48,0.00,,,0.00,WeatherCatV1.11B39,2013-09-23 19:11:00,
2013-09-23 15:16:00,63.1,44.2,29.72,WSW,240,0.0,1.0,50,0.00,,,0.00,WeatherCatV1.11B39,2013-09-23 19:16:00,
2013-09-23 15:21:00,63.2,44.2,29.73,WNW,303,0.0,0.0,50,0.00,,,0.00,WeatherCatV1.11B39,2013-09-23 19:21:00,
2013-09-23 15:26:00,63.5,43.5,29.72,SW,226,0.0,0.0,48,0.00,,,0.00,WeatherCatV1.11B39,2013-09-23 19:26:00,
2013-09-23 15:31:00,63.5,43.5,29.72,WNW,294,0.0,0.0,48,0.00,,,0.00,WeatherCatV1.11B39,2013-09-23 19:31:00,
2013-09-23 15:36:00,63.9,43.3,29.72,SSW,206,0.0,0.0,47,0.00,,,0.00,WeatherCatV1.11B39,2013-09-23 19:36:00,
2013-09-23 15:41:00,63.9,43.8,29.73,WNW,301,0.0,0.0,48,0.00,,,0.00,WeatherCatV1.11B39,2013-09-23 19:41:00,
2013-09-23 15:46:00,64.4,45.3,29.72,WSW,250,0.0,0.0,50,0.00,,,0.00,WeatherCatV1.11B39,2013-09-23 19:46:00,
2013-09-23 15:51:00,64.6,43.3,29.72,WSW,250,0.0,0.0,46,0.00,,,0.00,WeatherCatV1.11B39,2013-09-23 19:51:00,
2013-09-23 15:56:00,64.5,43.3,29.73,West,264,0.0,0.0,46,0.00,,,0.00,WeatherCatV1.11B39,2013-09-23 19:56:00,
2013-09-23 16:01:00,63.6,43.0,29.73,NE,56,0.0,0.0,47,0.00,,,0.00,WeatherCatV1.11B39,2013-09-23 20:01:00,
2013-09-23 16:06:00,62.7,42.7,29.72,ENE,60,0.0,0.0,48,0.00,,,0.00,WeatherCatV1.11B39,2013-09-23 20:06:00,
2013-09-23 16:11:00,62.6,44.2,29.72,SSW,208,0.0,2.0,51,0.00,,,0.00,WeatherCatV1.11B39,2013-09-23 20:11:00,
2013-09-23 16:16:00,62.6,43.7,29.72,WNW,302,0.0,8.0,50,0.00,,,0.00,WeatherCatV1.11B39,2013-09-23 20:16:00,
2013-09-23 16:21:00,62.6,43.2,29.72,SW,235,0.0,3.0,49,0.00,,,0.00,WeatherCatV1.11B39,2013-09-23 20:21:00,
2013-09-23 16:26:00,62.7,43.3,29.72,NW,317,0.0,2.0,49,0.00,,,0.00,WeatherCatV1.11B39,2013-09-23 20:26:00,
2013-09-23 16:31:00,62.7,42.7,29.73,East,83,0.0,0.0,48,0.00,,,0.00,WeatherCatV1.11B39,2013-09-23 20:31:00,
2013-09-23 16:36:00,62.6,43.2,29.73,SSW,204,0.0,0.0,49,0.00,,,0.00,WeatherCatV1.11B39,2013-09-23 20:36:00,
2013-09-23 16:41:00,62.3,42.4,29.73,SSE,152,0.0,0.0,48,0.00,,,0.00,WeatherCatV1.11B39,2013-09-23 20:41:00,
2013-09-23 16:46:00,61.8,41.9,29.73,ESE,120,0.0,0.0,48,0.00,,,0.00,WeatherCatV1.11B39,2013-09-23 20:46:00,
2013-09-23 16:51:00,61.5,42.2,29.73,SSE,147,0.0,0.0,49,0.00,,,0.00,WeatherCatV1.11B39,2013-09-23 20:51:00,
2013-09-23 16:56:00,61.3,42.5,29.73,ESE,103,0.0,0.0,50,0.00,,,0.00,WeatherCatV1.11B39,2013-09-23 20:56:00,
2013-09-23 17:01:00,61.3,42.5,29.73,SSW,193,0.0,0.0,50,0.00,,,0.00,WeatherCatV1.11B39,2013-09-23 21:01:00,
2013-09-23 17:06:00,61.0,42.2,29.74,SSW,193,0.0,0.0,50,0.00,,,0.00,WeatherCatV1.11B39,2013-09-23 21:06:00,
2013-09-23 17:11:00,61.0,42.7,29.74,South,189,0.0,0.0,51,0.00,,,0.00,WeatherCatV1.11B39,2013-09-23 21:11:00,
2013-09-23 17:16:00,61.0,42.2,29.74,South,187,0.0,0.0,50,0.00,,,0.00,WeatherCatV1.11B39,2013-09-23 21:16:00,
2013-09-23 17:21:00,60.8,43.1,29.74,South,184,0.0,0.0,52,0.00,,,0.00,WeatherCatV1.11B39,2013-09-23 21:21:00,
2013-09-23 17:26:00,60.5,41.8,29.74,SSE,162,0.0,0.0,50,0.00,,,0.00,WeatherCatV1.11B39,2013-09-23 21:26:00,
2013-09-23 17:31:00,60.1,42.4,29.74,SSE,162,0.0,0.0,52,0.00,,,0.00,WeatherCatV1.11B39,2013-09-23 21:31:00,
2013-09-23 17:36:00,59.9,42.2,29.74,South,169,0.0,0.0,52,0.00,,,0.00,WeatherCatV1.11B39,2013-09-23 21:36:00,
2013-09-23 17:41:00,59.7,42.5,29.75,South,172,0.0,0.0,53,0.00,,,0.00,WeatherCatV1.11B39,2013-09-23 21:41:00,
2013-09-23 17:46:00,59.6,42.4,29.75,East,81,0.0,0.0,53,0.00,,,0.00,WeatherCatV1.11B39,2013-09-23 21:46:00,
2013-09-23 17:51:00,59.5,42.4,29.75,ENE,78,0.0,0.0,53,0.00,,,0.00,WeatherCatV1.11B39,2013-09-23 21:51:00,
2013-09-23 17:56:00,59.1,42.0,29.76,ENE,78,0.0,0.0,53,0.00,,,0.00,WeatherCatV1.11B39,2013-09-23 21:56:00,
2013-09-23 18:01:00,58.8,42.2,29.76,East,100,0.0,0.0,54,0.00,,,0.00,WeatherCatV1.11B39,2013-09-23 22:01:00,
2013-09-23 18:06:00,58.5,42.4,29.76,East,94,0.0,0.0,55,0.00,,,0.00,WeatherCatV1.11B39,2013-09-23 22:06:00,
2013-09-23 18:11:00,58.2,42.6,29.76,East,94,0.0,0.0,56,0.00,,,0.00,WeatherCatV1.11B39,2013-09-23 22:11:00,
2013-09-23 18:16:00,57.9,42.3,29.76,East,94,0.0,0.0,56,0.00,,,0.00,WeatherCatV1.11B39,2013-09-23 22:16:00,
2013-09-23 18:21:00,57.5,41.9,29.77,East,94,0.0,0.0,56,0.00,,,0.00,WeatherCatV1.11B39,2013-09-23 22:21:00,
2013-09-23 18:26:00,57.2,42.1,29.77,ESE,116,0.0,0.0,57,0.00,,,0.00,WeatherCatV1.11B39,2013-09-23 22:26:00,
2013-09-23 18:31:00,56.9,42.3,29.77,ESE,116,0.0,0.0,58,0.00,,,0.00,WeatherCatV1.11B39,2013-09-23 22:31:00,
2013-09-23 18:36:00,56.4,41.8,29.77,ESE,116,0.0,0.0,58,0.00,,,0.00,WeatherCatV1.11B39,2013-09-23 22:36:00,
2013-09-23 18:41:00,56.0,41.9,29.77,ESE,116,0.0,0.0,59,0.00,,,0.00,WeatherCatV1.11B39,2013-09-23 22:41:00,
2013-09-23 18:46:00,55.5,42.3,29.77,ESE,116,0.0,0.0,61,0.00,,,0.00,WeatherCatV1.11B39,2013-09-23 22:46:00,
2013-09-23 18:51:00,55.1,41.9,29.77,ESE,116,0.0,0.0,61,0.00,,,0.00,WeatherCatV1.11B39,2013-09-23 22:51:00,
2013-09-23 18:56:00,54.6,41.8,29.77,ESE,116,0.0,0.0,62,0.00,,,0.00,WeatherCatV1.11B39,2013-09-23 22:56:00,
2013-09-23 19:01:00,54.3,42.0,29.77,ESE,116,0.0,0.0,63,0.00,,,0.00,WeatherCatV1.11B39,2013-09-23 23:01:00,
2013-09-23 19:06:00,54.1,41.8,29.77,ESE,116,0.0,0.0,63,0.00,,,0.00,WeatherCatV1.11B39,2013-09-23 23:06:00,
2013-09-23 19:11:00,53.7,41.8,29.78,ESE,116,0.0,0.0,64,0.00,,,0.00,WeatherCatV1.11B39,2013-09-23 23:11:00,
2013-09-23 19:16:00,53.4,41.9,29.78,ESE,116,0.0,0.0,65,0.00,,,0.00,WeatherCatV1.11B39,2013-09-23 23:16:00,
2013-09-23 19:21:00,52.9,41.5,29.78,ESE,116,0.0,0.0,65,0.00,,,0.00,WeatherCatV1.11B39,2013-09-23 23:21:00,
2013-09-23 19:26:00,52.5,41.9,29.78,ESE,116,0.0,0.0,67,0.00,,,0.00,WeatherCatV1.11B39,2013-09-23 23:26:00,
2013-09-23 19:31:00,52.2,41.6,29.78,ESE,116,0.0,0.0,67,0.00,,,0.00,WeatherCatV1.11B39,2013-09-23 23:31:00,
2013-09-23 19:36:00,51.8,41.6,29.79,ESE,116,0.0,0.0,68,0.00,,,0.00,WeatherCatV1.11B39,2013-09-23 23:36:00,
2013-09-23 19:41:00,51.5,41.7,29.79,ESE,116,0.0,0.0,69,0.00,,,0.00,WeatherCatV1.11B39,2013-09-23 23:41:00,
2013-09-23 19:46:00,51.3,41.5,29.80,ESE,116,0.0,0.0,69,0.00,,,0.00,WeatherCatV1.11B39,2013-09-23 23:46:00,
2013-09-23 19:51:00,51.0,41.9,29.80,ESE,116,0.0,0.0,71,0.00,,,0.00,WeatherCatV1.11B39,2013-09-23 23:51:00,
2013-09-23 19:56:00,50.7,41.6,29.80,ESE,115,0.0,0.0,71,0.00,,,0.00,WeatherCatV1.11B39,2013-09-23 23:56:00,
2013-09-23 20:02:00,50.4,41.4,29.81,ESE,115,0.0,0.0,71,0.00,,,0.00,WeatherCatV1.11B39,2013-09-24 00:02:00,
2013-09-23 20:07:00,50.3,41.3,29.81,ESE,115,0.0,0.0,71,0.00,,,0.00,WeatherCatV1.11B39,2013-09-24 00:07:00,
2013-09-23 20:12:00,50.1,41.4,29.81,ESE,115,0.0,0.0,72,0.00,,,0.00,WeatherCatV1.11B39,2013-09-24 00:12:00,
2013-09-23 20:17:00,49.9,40.9,29.81,ESE,115,0.0,0.0,71,0.00,,,0.00,WeatherCatV1.11B39,2013-09-24 00:17:00,
2013-09-23 20:22:00,49.8,41.1,29.81,ESE,115,0.0,0.0,72,0.00,,,0.00,WeatherCatV1.11B39,2013-09-24 00:22:00,
2013-09-23 20:27:00,49.7,41.0,29.81,ESE,115,0.0,0.0,72,0.00,,,0.00,WeatherCatV1.11B39,2013-09-24 00:27:00,
2013-09-23 20:32:00,49.5,40.9,29.81,ESE,115,0.0,0.0,72,0.00,,,0.00,WeatherCatV1.11B39,2013-09-24 00:32:00,
2013-09-23 20:37:00,49.4,40.8,29.81,ESE,115,0.0,0.0,72,0.00,,,0.00,WeatherCatV1.11B39,2013-09-24 00:37:00,
2013-09-23 20:42:00,49.3,41.0,29.81,ESE,115,0.0,0.0,73,0.00,,,0.00,WeatherCatV1.11B39,2013-09-24 00:42:00,
2013-09-23 20:47:00,49.1,40.8,29.81,ESE,115,0.0,0.0,73,0.00,,,0.00,WeatherCatV1.11B39,2013-09-24 00:47:00,
2013-09-23 20:52:00,48.8,40.9,29.82,ESE,115,0.0,0.0,74,0.00,,,0.00,WeatherCatV1.11B39,2013-09-24 00:52:00,
2013-09-23 20:57:00,48.8,40.9,29.81,ESE,115,0.0,0.0,74,0.00,,,0.00,WeatherCatV1.11B39,2013-09-24 00:57:00,
2013-09-23 21:02:00,48.5,40.9,29.82,ESE,115,0.0,0.0,75,0.00,,,0.00,WeatherCatV1.11B39,2013-09-24 01:02:00,
2013-09-23 21:07:00,48.3,40.7,29.82,ESE,115,0.0,0.0,75,0.00,,,0.00,WeatherCatV1.11B39,2013-09-24 01:07:00,
2013-09-23 21:12:00,48.2,41.0,29.82,ESE,115,0.0,0.0,76,0.00,,,0.00,WeatherCatV1.11B39,2013-09-24 01:12:00,
2013-09-23 21:17:00,48.1,41.2,29.81,ESE,115,0.0,0.0,77,0.00,,,0.00,WeatherCatV1.11B39,2013-09-24 01:17:00,
2013-09-23 21:22:00,47.9,41.0,29.82,ESE,115,0.0,0.0,77,0.00,,,0.00,WeatherCatV1.11B39,2013-09-24 01:22:00,
2013-09-23 21:27:00,47.9,41.4,29.82,ESE,115,0.0,0.0,78,0.00,,,0.00,WeatherCatV1.11B39,2013-09-24 01:27:00,
2013-09-23 21:32:00,47.7,41.2,29.82,ESE,115,0.0,0.0,78,0.00,,,0.00,WeatherCatV1.11B39,2013-09-24 01:32:00,
2013-09-23 21:37:00,47.7,41.2,29.82,SE,127,0.0,0.0,78,0.00,,,0.00,WeatherCatV1.11B39,2013-09-24 01:37:00,
2013-09-23 21:42:00,47.8,41.3,29.82,SE,127,0.0,0.0,78,0.00,,,0.00,WeatherCatV1.11B39,2013-09-24 01:42:00,
2013-09-23 21:47:00,47.7,41.5,29.82,SE,127,0.0,0.0,79,0.00,,,0.00,WeatherCatV1.11B39,2013-09-24 01:47:00,
2013-09-23 21:52:00,47.7,41.5,29.82,SE,127,0.0,0.0,79,0.00,,,0.00,WeatherCatV1.11B39,2013-09-24 01:52:00,
2013-09-23 21:57:00,47.6,41.4,29.82,SE,127,0.0,0.0,79,0.00,,,0.00,WeatherCatV1.11B39,2013-09-24 01:57:00,
2013-09-23 22:02:00,47.5,41.0,29.82,SE,127,0.0,0.0,78,0.00,,,0.00,WeatherCatV1.11B39,2013-09-24 02:02:00,
2013-09-23 22:07:00,47.3,40.8,29.83,SE,127,0.0,0.0,78,0.00,,,0.00,WeatherCatV1.11B39,2013-09-24 02:07:00,
2013-09-23 22:12:00,47.2,40.7,29.83,SE,127,0.0,0.0,78,0.00,,,0.00,WeatherCatV1.11B39,2013-09-24 02:12:00,
2013-09-23 22:17:00,47.0,40.5,29.82,SE,127,0.0,0.0,78,0.00,,,0.00,WeatherCatV1.11B39,2013-09-24 02:17:00,
2013-09-23 22:22:00,46.9,40.4,29.82,SE,127,0.0,0.0,78,0.00,,,0.00,WeatherCatV1.11B39,2013-09-24 02:22:00,
2013-09-23 22:27:00,46.9,40.1,29.82,SE,127,0.0,0.0,77,0.00,,,0.00,WeatherCatV1.11B39,2013-09-24 02:27:00,
2013-09-23 22:32:00,46.9,40.1,29.82,SE,127,0.0,0.0,77,0.00,,,0.00,WeatherCatV1.11B39,2013-09-24 02:32:00,
2013-09-23 22:37:00,46.9,40.1,29.83,SE,127,0.0,0.0,77,0.00,,,0.00,WeatherCatV1.11B39,2013-09-24 02:37:00,
2013-09-23 22:42:00,47.0,40.2,29.82,SE,126,0.0,0.0,77,0.00,,,0.00,WeatherCatV1.11B39,2013-09-24 02:42:00,
2013-09-23 22:47:00,47.5,41.0,29.82,West,278,4.0,4.0,78,0.00,,,0.00,WeatherCatV1.11B39,2013-09-24 02:47:00,
2013-09-23 22:52:00,48.1,41.6,29.82,West,276,0.0,2.0,78,0.00,,,0.00,WeatherCatV1.11B39,2013-09-24 02:52:00,
2013-09-23 22:57:00,48.1,41.6,29.82,WNW,298,1.0,4.0,78,0.00,,,0.00,WeatherCatV1.11B39,2013-09-24 02:57:00,
2013-09-23 23:02:00,48.2,41.3,29.82,WNW,296,0.0,4.0,77,0.00,,,0.00,WeatherCatV1.11B39,2013-09-24 03:02:00,
2013-09-23 23:07:00,48.1,41.2,29.82,WNW,299,3.0,5.0,77,0.00,,,0.00,WeatherCatV1.11B39,2013-09-24 03:07:00,
2013-09-23 23:12:00,48.0,41.1,29.81,WNW,296,4.0,7.0,77,0.00,,,0.00,WeatherCatV1.11B39,2013-09-24 03:12:00,
2013-09-23 23:17:00,48.1,40.9,29.82,WNW,299,3.0,5.0,76,0.00,,,0.00,WeatherCatV1.11B39,2013-09-24 03:17:00,
2013-09-23 23:22:00,48.2,41.0,29.81,WNW,295,3.0,7.0,76,0.00,,,0.00,WeatherCatV1.11B39,2013-09-24 03:22:00,
2013-09-23 23:27:00,48.4,41.2,29.81,WNW,300,3.0,5.0,76,0.00,,,0.00,WeatherCatV1.11B39,2013-09-24 03:27:00,
2013-09-23 23:32:00,48.2,40.3,29.81,NW,306,3.0,7.0,74,0.00,,,0.00,WeatherCatV1.11B39,2013-09-24 03:32:00,
2013-09-23 23:37:00,48.2,40.3,29.81,WNW,297,0.0,5.0,74,0.00,,,0.00,WeatherCatV1.11B39,2013-09-24 03:37:00,
2013-09-23 23:42:00,48.4,40.5,29.81,WNW,295,2.0,6.0,74,0.00,,,0.00,WeatherCatV1.11B39,2013-09-24 03:42:00,
2013-09-23 23:47:00,48.2,40.3,29.81,WNW,302,2.0,6.0,74,0.00,,,0.00,WeatherCatV1.11B39,2013-09-24 03:47:00,
2013-09-23 23:52:00,48.4,40.5,29.81,WNW,297,0.0,5.0,74,0.00,,,0.00,WeatherCatV1.11B39,2013-09-24 03:52:00,
2013-09-23 23:57:00,48.3,40.4,29.81,NW,304,0.0,0.0,74,0.00,,,0.00,WeatherCatV1.11B39,2013-09-24 03:57:00,